Location: Unspecified
(0.0000°N, 0.0000°E)
Time: 18:03:55
(UTC+00:00)

Vanguard 3 - Pass Details

Date: 30 September 2023
Orbit: 507 x 3241 km, 33.3° (Epoch: 29 November)

Event Time Altitude Azimuth Distance (km) Brightness Sun altitude
Rises 08:14:01 0° 213° (SSW) 4,951 10.9 35.9°
Reaches altitude 10° 08:22:31 10° 175° (S) 4,831 11.3 38.0°
Maximum altitude 08:24:42 10° 166° (SSE) 4,988 11.5 38.6°
Drops below altitude 10° 08:27:02 10° 157° (SSE) 5,217 11.7 39.2°
Sets 08:39:08 0° 123° (ESE) 6,965 12.6 42.2°
